NT2C Weather Reports


Display with metric or nautical units.
time (UTC)temp
F
wind
direction
speed
MPH
gust
MPH
rain 1hr
in
rain 24hr
in
rain mn
in
humidity
%
barometer
mb
20260901095005 72 221 0.0 0.0 0.00 0.00 0.00 93 1009.5
20260901094504 72 221 0.0 0.0 0.00 0.00 0.00 93 1009.6
20260901094003 72 221 0.0 0.0 0.00 0.00 0.00 93 1009.5
20260901093503 72 221 0.0 0.0 0.00 0.00 0.00 93 1009.6
20260901093003 73 221 0.0 0.0 0.00 0.00 0.00 93 1009.6
20260901092502 73 221 0.0 0.0 0.00 0.00 0.00 93 1009.7
20260901092004 73 221 0.0 0.0 0.00 0.00 0.00 92 1009.6
20260901091501 73 221 0.0 0.0 0.00 0.00 0.00 92 1009.6
20260901091001 73 221 0.0 0.0 0.00 0.00 0.00 92 1009.6
20260901090600 73 221 0.0 0.0 0.00 0.00 0.00 92 1009.7
20260901090100 73 221 0.0 1.0 0.00 0.00 0.00 93 1009.5
20260901085559 73 221 0.0 1.0 0.00 0.00 0.00 93 1009.5
20260901085059 73 228 0.0 2.0 0.00 0.00 0.00 93 1009.6
20260901084601 73 231 0.0 3.0 0.00 0.00 0.00 93 1009.4
20260901084501 73 224 0.0 3.0 0.00 0.00 0.00 93 1009.4
20260901084058 73 214 0.0 1.0 0.00 0.00 0.00 92 1009.5
20260901083558 73 237 0.0 2.0 0.00 0.00 0.00 92 1009.5
20260901083058 73 232 0.0 2.0 0.00 0.00 0.00 93 1009.6
20260901082556 73 210 0.0 1.0 0.00 0.00 0.00 93 1009.4
20260901082055 73 195 0.0 1.0 0.00 0.00 0.00 92 1009.4
20260901081555 73 197 0.0 0.0 0.00 0.00 0.00 92 1009.5
20260901081055 73 196 0.0 0.0 0.00 0.00 0.00 92 1009.6
20260901080555 73 196 0.0 0.0 0.00 0.00 0.00 92 1009.6
20260901080101 73 196 0.0 1.0 0.00 0.00 0.00 92 1009.6
20260901075555 73 196 0.0 1.0 0.00 0.00 0.00 92 1009.6
20260901075054 73 225 0.0 1.0 0.00 0.00 0.00 92 1009.6
20260901074605 73 225 0.0 0.0 0.00 0.00 0.00 91 1009.7
20260901074052 73 225 0.0 0.0 0.00 0.00 0.00 91 1009.7
20260901073555 73 225 0.0 0.0 0.00 0.00 0.00 91 1009.7
20260901073052 74 225 0.0 0.0 0.00 0.00 0.00 91 1009.7
20260901072553 74 225 0.0 0.0 0.00 0.00 0.00 91 1009.7
20260901072051 74 225 0.0 1.0 0.00 0.00 0.00 91 1009.7
20260901071550 74 225 0.0 1.0 0.00 0.00 0.00 91 1009.7
20260901071051 74 242 0.0 0.0 0.00 0.00 0.00 90 1009.7
20260901070548 74 242 0.0 1.0 0.00 0.00 0.00 90 1009.8
20260901070048 74 242 0.0 1.0 0.00 0.00 0.00 90 1009.7
20260901065547 75 207 0.0 2.0 0.00 0.00 0.00 90 1009.7
20260901065047 75 197 1.0 2.0 0.00 0.00 0.00 90 1009.7
20260901064547 75 203 0.0 1.0 0.00 0.00 0.00 90 1009.8
20260901064046 75 236 0.0 1.0 0.00 0.00 0.00 90 1009.8
20260901063545 75 236 0.0 1.0 0.00 0.00 0.00 90 1009.8
20260901063046 75 237 0.0 1.0 0.00 0.00 0.00 89 1009.9
20260901062544 75 237 0.0 1.0 0.00 0.00 0.00 90 1009.9
20260901062046 75 210 0.0 1.0 0.00 0.00 0.00 90 1010.0
20260901061543 75 224 0.0 1.0 0.00 0.00 0.00 90 1010.1
20260901061042 75 225 0.0 1.0 0.00 0.00 0.00 90 1010.2
20260901060545 75 349 0.0 1.0 0.00 0.00 0.00 90 1010.2
20260901060041 75 349 0.0 1.0 0.00 0.00 0.00 90 1010.3
20260901055540 75 349 0.0 0.0 0.00 0.00 0.00 90 1010.4
20260901055042 75 349 0.0 0.0 0.00 0.00 0.00 90 1010.5
20260901054540 75 349 0.0 0.0 0.00 0.00 0.00 90 1010.5
20260901054040 75 349 0.0 0.0 0.00 0.00 0.00 90 1010.4
20260901053543 75 349 0.0 0.0 0.00 0.00 0.00 90 1010.4
20260901053056 75 355 0.0 0.0 0.00 0.00 0.00 90 1010.5
20260901052538 75 356 0.0 0.0 0.00 0.00 0.00 90 1010.5
20260901052038 75 356 0.0 0.0 0.00 0.00 0.00 90 1010.6
20260901051556 75 356 0.0 0.0 0.00 0.00 0.00 90 1010.8
20260901051037 75 355 0.0 0.0 0.00 0.00 0.00 89 1010.7
20260901050537 75 356 0.0 0.0 0.00 0.00 0.00 89 1010.7
20260901050036 75 355 0.0 2.0 0.00 0.00 0.00 89 1010.8
20260901045539 75 356 0.0 4.0 0.00 0.00 0.00 90 1010.9
20260901045034 75 271 2.0 4.0 0.00 0.00 0.00 90 1010.9
20260901044536 75 248 0.0 0.0 0.00 0.00 0.00 90 1010.9
20260901044033 75 233 0.0 2.0 0.00 0.00 0.00 90 1011.0
20260901043533 75 236 0.0 2.0 0.00 0.00 0.00 90 1010.9
20260901043038 75 231 0.0 1.0 0.00 0.00 0.00 90 1010.9
20260901042531 75 232 0.0 1.0 0.00 0.00 0.00 90 1011.0
20260901042033 75 242 0.0 1.0 0.00 0.00 0.00 90 1010.9
20260901041548 75 248 0.0 1.0 0.00 0.00 0.00 90 1011.0
20260901041031 75 122 0.0 0.0 0.00 0.00 0.00 90 1011.0
20260901040530 75 122 0.0 1.0 0.00 0.00 0.00 90 1010.9
20260901040032 75 118 0.0 1.0 0.00 0.00 0.00 90 1011.1
20260901035529 75 118 0.0 0.0 0.00 0.00 0.00 90 1011.0
20260901035028 75 118 0.0 0.0 0.00 0.00 0.00 89 1011.1
20260901034529 75 118 0.0 0.0 0.00 0.00 0.00 89 1011.0
20260901034029 75 118 0.0 0.0 0.00 0.00 0.00 89 1011.1
20260901033528 76 118 0.0 0.0 0.00 0.00 0.00 89 1011.1
20260901033029 76 118 0.0 0.0 0.00 0.00 0.00 88 1010.9
20260901032527 76 118 0.0 0.0 0.00 0.00 0.00 88 1011.0
20260901032027 76 118 0.0 0.0 0.00 0.00 0.00 88 1010.9
20260901031547 76 118 0.0 0.0 0.00 0.00 0.00 88 1010.8
20260901031030 76 118 0.0 0.0 0.00 0.00 0.00 88 1010.8
20260901030528 76 118 0.0 0.0 0.00 0.00 0.00 88 1010.8
20260901030026 76 118 0.0 0.0 0.00 0.00 0.00 88 1010.8
20260901025527 76 118 0.0 0.0 0.00 0.00 0.00 87 1010.8
20260901025029 76 118 0.0 0.0 0.00 0.00 0.00 87 1010.7
20260901024526 77 118 0.0 0.0 0.00 0.00 0.00 87 1010.6
20260901024025 77 118 0.0 0.0 0.00 0.00 0.00 86 1010.6
20260901023525 77 118 0.0 0.0 0.00 0.00 0.00 85 1010.5
20260901023026 77 118 0.0 0.0 0.00 0.00 0.00 85 1010.5
20260901022525 77 118 0.0 0.0 0.00 0.00 0.00 85 1010.7
20260901022025 78 118 0.0 0.0 0.00 0.00 0.00 85 1010.5
20260901021530 78 118 0.0 0.0 0.00 0.00 0.00 84 1010.6
20260901021025 78 118 0.0 0.0 0.00 0.00 0.00 84 1010.6
20260901020527 78 118 0.0 0.0 0.00 0.00 0.00 84 1010.6
20260901020024 79 118 0.0 0.0 0.00 0.00 0.00 83 1010.6
20260901015524 79 118 0.0 0.0 0.00 0.00 0.00 83 1010.5
20260901015025 79 118 0.0 0.0 0.00 0.00 0.00 83 1010.8
20260901014538 79 118 0.0 0.0 0.00 0.00 0.00 82 1010.6
20260901014023 79 118 0.0 0.0 0.00 0.00 0.00 82 1010.6
20260901013524 79 118 0.0 0.0 0.00 0.00 0.00 83 1010.5
20260901013025 79 118 0.0 0.0 0.00 0.00 0.00 82 1010.5
20260901012522 80 118 0.0 0.0 0.00 0.00 0.00 82 1010.3
20260901012022 80 118 0.0 0.0 0.00 0.00 0.00 82 1010.4
20260901011528 80 118 0.0 0.0 0.00 0.00 0.00 82 1010.4
20260901011026 80 118 0.0 0.0 0.00 0.00 0.00 82 1010.4
20260901010522 80 118 0.0 0.0 0.00 0.00 0.00 81 1010.3
20260901010022 80 118 0.0 0.0 0.00 0.00 0.00 81 1010.3
20260901005522 80 118 0.0 0.0 0.00 0.00 0.00 81 1010.4
20260901005022 80 118 0.0 0.0 0.00 0.00 0.00 81 1010.4
20260901004522 80 118 0.0 0.0 0.00 0.00 0.00 80 1010.2
20260901004021 80 118 0.0 0.0 0.00 0.00 0.00 80 1010.2
20260901003523 80 118 0.0 0.0 0.00 0.00 0.00 80 1010.2
20260901003023 80 118 0.0 0.0 0.00 0.00 0.00 80 1010.2
20260901002522 81 118 0.0 0.0 0.00 0.00 0.00 80 1010.2
20260901002021 81 118 0.0 0.0 0.00 0.00 0.00 80 1010.2
20260901001522 81 118 0.0 0.0 0.00 0.00 0.00 80 1010.3
20260901001022 81 118 0.0 0.0 0.00 0.00 0.00 80 1010.2
20260901000520 81 118 0.0 0.0 0.00 0.00 0.00 80 1010.2
20260901000024 81 118 0.0 1.0 0.00 0.00 0.00 80 1010.2
20260831235519 81 118 0.0 1.0 0.00 0.00 0.00 79 1010.2
20260831235019 81 118 0.0 0.0 0.00 0.00 0.00 79 1010.1
20260831234521 81 118 0.0 1.0 0.00 0.00 0.00 79 1010.1
20260831234019 82 118 0.0 1.0 0.00 0.00 0.00 79 1010.2
20260831233517 82 118 0.0 0.0 0.00 0.00 0.00 79 1010.2
20260831233017 82 118 0.0 1.0 0.00 0.00 0.00 79 1010.2
20260831232516 82 118 0.0 1.0 0.00 0.00 0.00 78 1010.3
20260831232016 82 118 0.0 1.0 0.00 0.00 0.00 78 1010.3
20260831231516 83 118 0.0 1.0 0.00 0.00 0.00 78 1010.4
20260831231016 83 118 0.0 1.0 0.00 0.00 0.00 78 1010.4
20260831230517 83 84 0.0 1.0 0.00 0.00 0.00 78 1010.5
20260831230019 83 38 0.0 1.0 0.00 0.00 0.00 77 1010.6
20260831225515 83 37 0.0 1.0 0.00 0.00 0.00 77 1010.6
20260831225014 84 37 0.0 1.0 0.00 0.00 0.00 76 1010.6
20260831224514 84 37 0.0 1.0 0.00 0.00 0.00 76 1010.6
20260831224016 84 35 0.0 1.0 0.00 0.00 0.00 76 1010.6
20260831223515 84 70 0.0 2.0 0.00 0.00 0.00 76 1010.6
20260831223014 84 72 0.0 2.0 0.00 0.00 0.00 76 1010.6
20260831222513 84 123 0.0 1.0 0.00 0.00 0.00 76 1010.6
20260831222011 84 120 0.0 0.0 0.00 0.00 0.00 76 1010.7
20260831221511 84 120 0.0 1.0 0.00 0.00 0.00 76 1010.6
20260831221011 85 120 0.0 1.0 0.00 0.00 0.00 75 1010.7
20260831220513 85 105 0.0 1.0 0.00 0.00 0.00 75 1010.7
20260831220011 85 117 0.0 1.0 0.00 0.00 0.00 75 1010.8
20260831215511 85 75 0.0 2.0 0.00 0.00 0.00 74 1010.8
20260831215011 86 66 0.0 4.0 0.00 0.00 0.00 74 1010.7
20260831214519 86 86 1.0 4.0 0.00 0.00 0.00 73 1010.7
20260831214011 86 49 0.0 3.0 0.00 0.00 0.00 73 1010.6
20260831213510 86 48 1.0 3.0 0.00 0.00 0.00 71 1010.7
20260831213010 86 314 0.0 3.0 0.00 0.00 0.00 71 1010.6
20260831212509 86 15 0.0 4.0 0.00 0.00 0.00 71 1010.6
20260831212009 87 20 0.0 4.0 0.00 0.00 0.00 71 1010.6
20260831211515 87 15 1.0 3.0 0.00 0.00 0.00 70 1010.5
20260831211008 87 359 0.0 3.0 0.00 0.00 0.00 70 1010.5
20260831210509 87 314 1.0 3.0 0.00 0.00 0.00 70 1010.7
20260831210009 88 296 0.0 5.0 0.00 0.00 0.00 69 1010.6
20260831205509 88 282 2.0 5.0 0.00 0.00 0.00 69 1010.6
20260831205008 88 99 1.0 5.0 0.00 0.00 0.00 69 1010.4
20260831204517 89 68 1.0 4.0 0.00 0.00 0.00 68 1010.4
20260831204008 89 315 0.0 1.0 0.00 0.00 0.00 69 1010.5
20260831203507 88 59 0.0 2.0 0.00 0.00 0.00 69 1010.4
20260831203130 88 50 0.0 4.0 0.00 0.00 0.00 69 1010.5
20260831202505 88 342 1.0 4.0 0.00 0.00 0.00 68 1010.6
20260831202007 89 335 0.0 4.0 0.00 0.00 0.00 69 1010.6
20260831201505 89 19 2.0 4.0 0.00 0.00 0.00 68 1010.7
20260831201005 88 136 0.0 2.0 0.00 0.00 0.00 69 1010.7
20260831200504 87 102 0.0 3.0 0.00 0.00 0.00 71 1010.7
20260831200008 87 58 1.0 3.0 0.00 0.00 0.00 72 1010.7
20260831195504 86 104 0.0 3.0 0.00 0.00 0.00 72 1010.8
20260831195004 86 134 0.0 3.0 0.00 0.00 0.00 72 1010.7
20260831194505 86 90 0.0 3.0 0.00 0.00 0.00 72 1010.8
20260831194007 86 94 0.0 3.0 0.00 0.00 0.00 72 1010.8
20260831193504 86 82 0.0 2.0 0.00 0.00 0.00 72 1010.9
20260831193005 86 91 0.0 3.0 0.00 0.00 0.00 73 1010.9
20260831192503 86 28 1.0 4.0 0.00 0.00 0.00 72 1011.0
20260831192002 86 68 0.0 4.0 0.00 0.00 0.00 72 1011.1
20260831191502 86 34 0.0 5.0 0.00 0.00 0.00 73 1011.2
20260831191003 87 49 1.0 5.0 0.00 0.00 0.00 70 1011.1
20260831190502 88 64 0.0 1.0 0.00 0.00 0.00 71 1011.2
20260831190002 88 110 0.0 1.0 0.00 0.00 0.00 71 1011.2
20260831185503 88 98 0.0 2.0 0.00 0.00 0.00 70 1011.0
20260831185001 88 84 0.0 2.0 0.00 0.00 0.00 69 1011.0
20260831184502 88 116 0.0 2.0 0.00 0.00 0.00 70 1011.1
20260831184001 88 122 0.0 1.0 0.00 0.00 0.00 69 1011.1
20260831183502 88 124 0.0 2.0 0.00 0.00 0.00 70 1011.0
20260831183002 88 122 0.0 3.0 0.00 0.00 0.00 68 1011.1
20260831182600 89 115 0.0 3.0 0.00 0.00 0.00 68 1011.1
20260831182101 89 88 0.0 2.0 0.00 0.00 0.00 69 1011.1
20260831181604 90 94 0.0 2.0 0.00 0.00 0.00 67 1011.2
20260831181059 89 221 0.0 6.0 0.00 0.00 0.00 69 1011.3
20260831180558 89 18 1.0 6.0 0.00 0.00 0.00 68 1011.5
20260831180058 89 176 0.0 3.0 0.00 0.00 0.00 69 1011.3
20260831175556 88 137 0.0 3.0 0.00 0.00 0.00 69 1011.4
20260831175055 88 117 1.0 2.0 0.00 0.00 0.00 70 1011.5
20260831174555 87 209 1.0 5.0 0.00 0.00 0.00 70 1011.5
20260831174054 87 139 1.0 5.0 0.00 0.00 0.00 70 1011.6
20260831173555 87 290 0.0 3.0 0.00 0.00 0.00 72 1011.6
20260831173055 86 96 0.0 4.0 0.00 0.00 0.00 72 1011.5
20260831172553 86 331 1.0 5.0 0.00 0.00 0.00 72 1011.6
20260831172053 86 53 2.0 6.0 0.00 0.00 0.00 72 1011.7
20260831171553 86 122 1.0 6.0 0.00 0.00 0.00 72 1011.8
20260831171052 86 323 2.0 5.0 0.00 0.00 0.00 71 1011.9
20260831171022 86 347 2.0 5.0 0.00 0.00 0.00 71 1011.9
20260831170553 87 306 1.0 5.0 0.00 0.00 0.00 72 1012.0
20260831170055 86 18 2.0 5.0 0.00 0.00 0.00 71 1012.1
20260831165551 87 58 2.0 5.0 0.00 0.00 0.00 71 1012.0
20260831165051 87 80 2.0 6.0 0.00 0.00 0.00 71 1012.1
20260831164551 87 106 1.0 4.0 0.00 0.00 0.00 71 1012.2
20260831164050 87 74 1.0 3.0 0.00 0.00 0.00 71 1012.1
20260831163550 87 11 0.0 3.0 0.00 0.00 0.00 72 1012.1
20260831163049 86 75 1.0 3.0 0.00 0.00 0.00 73 1012.2
20260831162547 86 117 1.0 4.0 0.00 0.00 0.00 73 1012.2
20260831162048 85 309 1.0 4.0 0.00 0.00 0.00 72 1012.2
20260831161546 85 77 1.0 5.0 0.00 0.00 0.00 73 1012.1
20260831161045 85 51 1.0 4.0 0.00 0.00 0.00 74 1012.2
20260831160545 85 112 0.0 3.0 0.00 0.00 0.00 74 1012.2
20260831160054 85 97 1.0 3.0 0.00 0.00 0.00 75 1012.2
20260831155543 84 132 0.0 5.0 0.00 0.00 0.00 76 1012.1
20260831155043 84 84 1.0 5.0 0.00 0.00 0.00 75 1012.2
20260831154552 84 122 1.0 3.0 0.00 0.00 0.00 74 1012.1
20260831154042 84 60 0.0 7.0 0.00 0.00 0.00 75 1012.1
20260831153541 83 93 3.0 7.0 0.00 0.00 0.00 74 1012.1
20260831153040 83 75 0.0 3.0 0.00 0.00 0.00 76 1012.0
20260831152539 83 60 0.0 6.0 0.00 0.00 0.00 77 1011.9
20260831152043 83 98 2.0 6.0 0.00 0.00 0.00 77 1011.9
20260831151539 83 4 1.0 8.0 0.00 0.00 0.00 77 1011.8
20260831151039 82 61 3.0 8.0 0.00 0.00 0.00 77 1011.9
20260831150539 83 65 1.0 5.0 0.00 0.00 0.00 77 1011.9
20260831150049 83 109 0.0 5.0 0.00 0.00 0.00 77 1011.8
20260831145537 83 13 1.0 5.0 0.00 0.00 0.00 77 1011.8
20260831145037 83 96 1.0 4.0 0.00 0.00 0.00 78 1011.8
20260831144539 82 79 1.0 4.0 0.00 0.00 0.00 77 1011.9
20260831144037 82 108 0.0 4.0 0.00 0.00 0.00 77 1011.8
20260831143536 82 93 0.0 3.0 0.00 0.00 0.00 78 1011.7
20260831143037 82 108 0.0 4.0 0.00 0.00 0.00 80 1011.8
20260831142535 81 27 1.0 4.0 0.00 0.00 0.00 79 1011.8
20260831142033 81 10 0.0 5.0 0.00 0.00 0.00 79 1011.9
20260831141532 81 21 1.0 4.0 0.00 0.00 0.00 80 1011.7
20260831141032 80 20 2.0 5.0 0.00 0.00 0.00 79 1011.7